Time,TemperatureF,DewpointF,PressureIn,WindDirection,WindDirectionDegrees,WindSpeedMPH,WindSpeedGustMPH,Humidity,HourlyPrecipIn,Conditions,Clouds,dailyrainin,SoftwareType,DateUTC
2013-09-09 00:01:00,56.5,52.7,30.04,SE,124,1.0,4.0,87,0.00,,,0.00,meteohub,2013-09-09 04:01:00,
2013-09-09 00:02:00,56.5,52.7,30.03,SE,131,2.0,4.0,87,0.00,,,0.00,meteohub,2013-09-09 04:02:00,
2013-09-09 00:03:00,56.5,52.7,30.03,SW,217,0.0,4.0,87,0.00,,,0.00,meteohub,2013-09-09 04:03:00,
2013-09-09 00:08:00,56.5,52.7,30.03,East,79,0.0,4.0,87,0.00,,,0.00,meteohub,2013-09-09 04:08:00,
2013-09-09 00:13:00,56.3,52.5,30.04,SE,146,1.0,5.0,87,0.00,,,0.00,meteohub,2013-09-09 04:13:00,
2013-09-09 00:18:00,56.3,52.5,30.04,ESE,122,3.0,5.0,87,0.00,,,0.00,meteohub,2013-09-09 04:18:00,
2013-09-09 00:23:00,56.3,52.5,30.03,SSE,167,1.0,5.0,87,0.00,,,0.00,meteohub,2013-09-09 04:23:00,
2013-09-09 00:28:00,56.1,52.3,30.03,SSE,150,0.0,7.0,87,0.00,,,0.00,meteohub,2013-09-09 04:28:00,
2013-09-09 00:33:00,56.1,52.3,30.03,ESE,112,4.0,7.0,87,0.00,,,0.00,meteohub,2013-09-09 04:33:00,
2013-09-09 00:38:00,56.1,52.3,30.03,SSW,195,1.0,5.0,87,0.00,,,0.00,meteohub,2013-09-09 04:38:00,
2013-09-09 00:43:00,56.1,52.0,30.03,South,186,0.0,5.0,86,0.00,,,0.00,meteohub,2013-09-09 04:43:00,
2013-09-09 00:48:00,56.1,52.3,30.03,SSW,193,0.0,5.0,87,0.00,,,0.00,meteohub,2013-09-09 04:48:00,
2013-09-09 00:53:00,55.9,51.8,30.03,SSW,199,1.0,5.0,86,0.00,,,0.00,meteohub,2013-09-09 04:53:00,
2013-09-09 00:58:00,55.9,51.8,30.03,SSW,196,0.0,4.0,86,0.00,,,0.00,meteohub,2013-09-09 04:58:00,
2013-09-09 01:03:00,55.8,51.6,30.03,ESE,117,0.0,4.0,86,0.00,,,0.00,meteohub,2013-09-09 05:03:00,
2013-09-09 01:08:00,55.8,51.6,30.03,SW,224,1.0,4.0,86,0.00,,,0.00,meteohub,2013-09-09 05:08:00,
2013-09-09 01:13:00,55.8,51.6,30.03,SE,126,0.0,4.0,86,0.00,,,0.00,meteohub,2013-09-09 05:13:00,
2013-09-09 01:18:00,55.8,51.6,30.03,ESE,121,1.0,4.0,86,0.00,,,0.00,meteohub,2013-09-09 05:18:00,
2013-09-09 01:23:00,55.8,51.6,30.03,East,80,0.0,7.0,86,0.00,,,0.00,meteohub,2013-09-09 05:23:00,
2013-09-09 01:28:00,55.8,51.3,30.03,ESE,107,0.0,7.0,85,0.00,,,0.00,meteohub,2013-09-09 05:28:00,
2013-09-09 01:33:00,55.8,51.6,30.03,West,263,0.0,4.0,86,0.00,,,0.00,meteohub,2013-09-09 05:33:00,
2013-09-09 01:38:00,55.8,51.3,30.03,ESE,115,0.0,4.0,85,0.00,,,0.00,meteohub,2013-09-09 05:38:00,
2013-09-09 01:43:00,55.9,51.4,30.03,SSE,160,0.0,3.0,85,0.00,,,0.00,meteohub,2013-09-09 05:43:00,
2013-09-09 01:48:00,55.9,51.3,30.03,ENE,74,3.0,3.0,84,0.00,,,0.00,meteohub,2013-09-09 05:48:00,
2013-09-09 01:53:00,55.9,51.4,30.03,ESE,115,0.0,3.0,85,0.00,,,0.00,meteohub,2013-09-09 05:53:00,
2013-09-09 01:58:00,55.9,51.3,30.02,South,183,0.0,3.0,84,0.00,,,0.00,meteohub,2013-09-09 05:58:00,
2013-09-09 02:03:00,55.9,51.3,30.02,SE,133,0.0,3.0,84,0.00,,,0.00,meteohub,2013-09-09 06:03:00,
2013-09-09 02:08:00,56.1,51.1,30.02,West,273,0.0,2.0,83,0.00,,,0.00,meteohub,2013-09-09 06:08:00,
2013-09-09 02:13:00,56.3,51.3,30.02,SSE,162,0.0,2.0,83,0.00,,,0.00,meteohub,2013-09-09 06:13:00,
2013-09-09 02:18:00,56.3,51.3,30.02,ESE,106,0.0,1.0,83,0.00,,,0.00,meteohub,2013-09-09 06:18:00,
2013-09-09 02:23:00,56.3,51.4,30.01,SSE,152,0.0,2.0,84,0.00,,,0.00,meteohub,2013-09-09 06:23:00,
2013-09-09 02:28:00,56.1,51.4,30.01,SE,143,0.0,2.0,84,0.00,,,0.00,meteohub,2013-09-09 06:28:00,
2013-09-09 02:33:00,56.1,51.4,30.01,SE,144,0.0,4.0,84,0.00,,,0.00,meteohub,2013-09-09 06:33:00,
2013-09-09 02:38:00,56.3,51.3,30.01,WSW,238,1.0,4.0,83,0.00,,,0.00,meteohub,2013-09-09 06:38:00,
2013-09-09 02:43:00,56.5,51.4,30.01,SE,133,0.0,3.0,83,0.00,,,0.00,meteohub,2013-09-09 06:43:00,
2013-09-09 02:48:00,56.5,51.4,30.01,ESE,119,0.0,3.0,83,0.00,,,0.00,meteohub,2013-09-09 06:48:00,
2013-09-09 02:53:00,56.5,51.4,30.01,South,178,1.0,2.0,83,0.00,,,0.00,meteohub,2013-09-09 06:53:00,
2013-09-09 02:58:00,56.5,51.4,30.01,SSE,148,0.0,2.0,83,0.00,,,0.00,meteohub,2013-09-09 06:58:00,
2013-09-09 03:03:00,56.7,51.6,30.01,SSE,154,0.0,3.0,83,0.00,,,0.00,meteohub,2013-09-09 07:03:00,
2013-09-09 03:08:00,56.8,51.4,30.01,SSE,148,0.0,3.0,82,0.00,,,0.00,meteohub,2013-09-09 07:08:00,
2013-09-09 03:13:00,56.8,51.4,30.01,NW,309,0.0,3.0,82,0.00,,,0.00,meteohub,2013-09-09 07:13:00,
2013-09-09 03:18:00,57.0,52.0,30.01,NE,44,1.0,3.0,83,0.00,,,0.00,meteohub,2013-09-09 07:18:00,
2013-09-09 03:23:00,57.0,52.0,30.01,NE,55,0.0,2.0,83,0.00,,,0.00,meteohub,2013-09-09 07:23:00,
2013-09-09 03:28:00,57.2,52.2,30.01,SE,135,2.0,4.0,83,0.00,,,0.00,meteohub,2013-09-09 07:28:00,
2013-09-09 03:33:00,57.4,52.3,30.01,NNE,32,0.0,4.0,83,0.00,,,0.00,meteohub,2013-09-09 07:33:00,
2013-09-09 03:39:00,57.4,52.0,30.01,East,82,1.0,4.0,82,0.00,,,0.00,meteohub,2013-09-09 07:39:00,
2013-09-09 03:44:00,57.4,52.0,30.01,SSW,195,2.0,5.0,82,0.00,,,0.00,meteohub,2013-09-09 07:44:00,
2013-09-09 03:49:00,57.4,52.0,30.00,ESE,105,2.0,5.0,82,0.00,,,0.00,meteohub,2013-09-09 07:49:00,
2013-09-09 03:54:00,57.4,52.0,30.00,SSE,154,2.0,5.0,82,0.00,,,0.00,meteohub,2013-09-09 07:54:00,
2013-09-09 03:59:00,57.4,52.0,30.00,SW,217,0.0,3.0,82,0.00,,,0.00,meteohub,2013-09-09 07:59:00,
2013-09-09 04:04:00,57.6,52.2,30.00,ENE,67,1.0,3.0,82,0.00,,,0.00,meteohub,2013-09-09 08:04:00,
2013-09-09 04:09:00,57.6,52.2,30.00,NE,34,1.0,2.0,82,0.00,,,0.00,meteohub,2013-09-09 08:09:00,
2013-09-09 04:14:00,57.6,52.2,30.00,ESE,117,0.0,3.0,82,0.00,,,0.00,meteohub,2013-09-09 08:14:00,
2013-09-09 04:19:00,57.6,52.2,30.00,ESE,119,1.0,5.0,82,0.00,,,0.00,meteohub,2013-09-09 08:19:00,
2013-09-09 04:24:00,57.6,52.2,30.00,ENE,78,1.0,5.0,82,0.00,,,0.00,meteohub,2013-09-09 08:24:00,
2013-09-09 04:29:00,57.6,52.5,30.00,South,174,0.0,5.0,83,0.00,,,0.00,meteohub,2013-09-09 08:29:00,
2013-09-09 04:34:00,57.4,52.3,30.00,SSE,152,0.0,3.0,83,0.00,,,0.00,meteohub,2013-09-09 08:34:00,
2013-09-09 04:39:00,57.4,52.3,30.00,East,98,0.0,3.0,83,0.00,,,0.00,meteohub,2013-09-09 08:39:00,
2013-09-09 04:44:00,57.4,52.3,30.00,East,100,3.0,3.0,83,0.00,,,0.00,meteohub,2013-09-09 08:44:00,
2013-09-09 04:49:00,57.2,52.2,30.00,SE,124,1.0,3.0,83,0.00,,,0.00,meteohub,2013-09-09 08:49:00,
2013-09-09 04:54:00,57.0,52.0,30.00,SSE,165,1.0,3.0,83,0.00,,,0.00,meteohub,2013-09-09 08:54:00,
2013-09-09 04:59:00,57.0,52.2,30.00,SSE,158,0.0,3.0,84,0.00,,,0.00,meteohub,2013-09-09 08:59:00,
2013-09-09 05:04:00,57.0,52.2,30.00,East,93,0.0,4.0,84,0.00,,,0.00,meteohub,2013-09-09 09:04:00,
2013-09-09 05:09:00,57.0,52.2,30.00,East,84,0.0,4.0,84,0.00,,,0.00,meteohub,2013-09-09 09:09:00,
2013-09-09 05:14:00,57.0,52.2,30.00,SSE,152,1.0,4.0,84,0.00,,,0.00,meteohub,2013-09-09 09:14:00,
2013-09-09 05:19:00,57.0,52.2,29.99,SE,133,0.0,3.0,84,0.00,,,0.00,meteohub,2013-09-09 09:19:00,
2013-09-09 05:24:00,57.0,52.2,29.99,South,172,0.0,5.0,84,0.00,,,0.00,meteohub,2013-09-09 09:24:00,
2013-09-09 05:29:00,57.2,52.3,29.99,ESE,105,1.0,5.0,84,0.00,,,0.00,meteohub,2013-09-09 09:29:00,
2013-09-09 05:34:00,57.2,52.3,29.99,ESE,105,1.0,4.0,84,0.00,,,0.00,meteohub,2013-09-09 09:34:00,
2013-09-09 05:39:00,57.2,52.3,29.99,East,81,1.0,5.0,84,0.00,,,0.00,meteohub,2013-09-09 09:39:00,
2013-09-09 05:44:00,57.2,52.2,29.99,SSE,168,0.0,5.0,83,0.00,,,0.00,meteohub,2013-09-09 09:44:00,
2013-09-09 05:49:00,57.4,52.3,29.99,East,79,2.0,5.0,83,0.00,,,0.00,meteohub,2013-09-09 09:49:00,
2013-09-09 05:54:00,57.4,52.3,29.99,SSE,160,0.0,3.0,83,0.00,,,0.00,meteohub,2013-09-09 09:54:00,
2013-09-09 05:59:00,57.6,52.2,29.99,ESE,117,2.0,3.0,82,0.00,,,0.00,meteohub,2013-09-09 09:59:00,
2013-09-09 06:04:00,57.7,52.7,29.99,ESE,103,3.0,5.0,83,0.00,,,0.00,meteohub,2013-09-09 10:04:00,
2013-09-09 06:09:00,57.7,52.7,29.99,ESE,116,1.0,5.0,83,0.00,,,0.00,meteohub,2013-09-09 10:09:00,
2013-09-09 06:14:00,57.7,52.7,29.98,ENE,77,0.0,5.0,83,0.00,,,0.00,meteohub,2013-09-09 10:14:00,
2013-09-09 06:19:00,57.7,52.3,29.98,ENE,67,1.0,3.0,82,0.00,,,0.00,meteohub,2013-09-09 10:19:00,
2013-09-09 06:24:00,57.9,52.5,29.98,ESE,107,1.0,5.0,82,0.00,,,0.00,meteohub,2013-09-09 10:24:00,
2013-09-09 06:29:00,57.9,52.5,29.98,ENE,74,1.0,5.0,82,0.00,,,0.00,meteohub,2013-09-09 10:29:00,
2013-09-09 06:34:00,57.9,52.7,29.98,SE,140,0.0,5.0,83,0.00,,,0.00,meteohub,2013-09-09 10:34:00,
2013-09-09 06:39:00,57.7,52.7,29.98,ESE,113,0.0,5.0,83,0.00,,,0.00,meteohub,2013-09-09 10:39:00,
2013-09-09 06:44:00,57.6,52.7,29.97,East,90,0.0,5.0,84,0.00,,,0.00,meteohub,2013-09-09 10:44:00,
2013-09-09 06:49:00,57.4,52.5,29.97,SE,141,1.0,5.0,84,0.00,,,0.00,meteohub,2013-09-09 10:49:00,
2013-09-09 06:54:00,57.4,52.5,29.97,SE,143,0.0,3.0,84,0.00,,,0.00,meteohub,2013-09-09 10:54:00,
2013-09-09 07:00:00,57.4,52.5,29.98,South,182,1.0,3.0,84,0.00,,,0.00,meteohub,2013-09-09 11:00:00,
2013-09-09 07:05:00,57.2,52.3,29.97,SE,129,1.0,3.0,84,0.00,,,0.00,meteohub,2013-09-09 11:05:00,
2013-09-09 07:10:00,57.4,52.5,29.97,SE,127,1.0,3.0,84,0.00,,,0.00,meteohub,2013-09-09 11:10:00,
2013-09-09 07:15:00,57.4,52.5,29.97,NE,34,1.0,5.0,84,0.00,,,0.00,meteohub,2013-09-09 11:15:00,
2013-09-09 07:20:00,57.4,52.5,29.97,SW,214,0.0,5.0,84,0.00,,,0.00,meteohub,2013-09-09 11:20:00,
2013-09-09 07:25:00,57.4,52.9,29.98,SSW,196,0.0,7.0,85,0.00,,,0.00,meteohub,2013-09-09 11:25:00,
2013-09-09 07:30:00,57.4,52.5,29.98,SSW,192,4.0,7.0,84,0.00,,,0.00,meteohub,2013-09-09 11:30:00,
2013-09-09 07:35:00,57.6,52.5,29.98,SSE,167,3.0,7.0,83,0.00,,,0.00,meteohub,2013-09-09 11:35:00,
2013-09-09 07:40:00,57.7,52.3,29.98,NE,43,3.0,6.0,82,0.00,,,0.00,meteohub,2013-09-09 11:40:00,
2013-09-09 07:45:00,57.9,52.7,29.98,WSW,240,1.0,6.0,83,0.00,,,0.00,meteohub,2013-09-09 11:45:00,
2013-09-09 07:50:00,57.9,52.5,29.97,SE,136,1.0,7.0,82,0.00,,,0.00,meteohub,2013-09-09 11:50:00,
2013-09-09 07:55:00,58.1,52.9,29.97,NE,54,0.0,7.0,83,0.00,,,0.00,meteohub,2013-09-09 11:55:00,
2013-09-09 08:00:00,58.3,52.9,29.97,ENE,73,2.0,7.0,82,0.00,,,0.00,meteohub,2013-09-09 12:00:00,
2013-09-09 08:05:00,58.5,53.1,29.97,North,10,1.0,4.0,82,0.00,,,0.00,meteohub,2013-09-09 12:05:00,
2013-09-09 08:10:00,58.6,52.9,29.97,SW,228,1.0,5.0,81,0.00,,,0.00,meteohub,2013-09-09 12:10:00,
2013-09-09 08:15:00,58.8,52.7,29.97,ESE,102,4.0,7.0,80,0.00,,,0.00,meteohub,2013-09-09 12:15:00,
2013-09-09 08:20:00,59.0,52.9,29.97,ENE,72,1.0,7.0,80,0.00,,,0.00,meteohub,2013-09-09 12:20:00,
2013-09-09 08:25:00,59.2,53.1,29.97,East,94,0.0,7.0,80,0.00,,,0.00,meteohub,2013-09-09 12:25:00,
2013-09-09 08:30:00,59.2,53.1,29.97,SW,235,1.0,6.0,80,0.00,,,0.00,meteohub,2013-09-09 12:30:00,
2013-09-09 08:35:00,59.4,53.2,29.97,ESE,119,1.0,6.0,80,0.00,,,0.00,meteohub,2013-09-09 12:35:00,
2013-09-09 08:40:00,59.4,53.2,29.97,ESE,107,1.0,4.0,80,0.00,,,0.00,meteohub,2013-09-09 12:40:00,
2013-09-09 08:45:00,59.5,53.4,29.97,SSW,192,0.0,4.0,80,0.00,,,0.00,meteohub,2013-09-09 12:45:00,
2013-09-09 08:50:00,59.7,53.6,29.97,SSE,150,1.0,3.0,80,0.00,,,0.00,meteohub,2013-09-09 12:50:00,
2013-09-09 08:55:00,60.1,54.3,29.97,SSE,158,1.0,5.0,81,0.00,,,0.00,meteohub,2013-09-09 12:55:00,
2013-09-09 09:00:00,60.3,54.3,29.97,ESE,117,1.0,5.0,81,0.00,,,0.00,meteohub,2013-09-09 13:00:00,
2013-09-09 09:05:00,60.3,54.3,29.97,West,261,1.0,3.0,81,0.00,,,0.00,meteohub,2013-09-09 13:05:00,
2013-09-09 09:10:00,60.4,54.5,29.97,ESE,108,0.0,4.0,81,0.00,,,0.00,meteohub,2013-09-09 13:10:00,
2013-09-09 09:15:00,60.6,54.7,29.97,ESE,123,2.0,4.0,81,0.00,,,0.00,meteohub,2013-09-09 13:15:00,
2013-09-09 09:20:00,61.2,54.9,29.97,ESE,103,1.0,6.0,80,0.00,,,0.00,meteohub,2013-09-09 13:20:00,
2013-09-09 09:25:00,61.3,55.0,29.97,East,80,1.0,6.0,80,0.00,,,0.00,meteohub,2013-09-09 13:25:00,
2013-09-09 09:30:00,61.7,55.4,29.97,SSE,157,3.0,6.0,80,0.00,,,0.00,meteohub,2013-09-09 13:30:00,
2013-09-09 09:35:00,61.9,55.6,29.97,ESE,122,2.0,7.0,80,0.00,,,0.00,meteohub,2013-09-09 13:35:00,
2013-09-09 09:40:00,62.1,55.4,29.97,SE,138,3.0,7.0,79,0.00,,,0.00,meteohub,2013-09-09 13:40:00,
2013-09-09 09:45:00,62.1,55.4,29.96,SW,227,2.0,7.0,79,0.00,,,0.00,meteohub,2013-09-09 13:45:00,
2013-09-09 09:50:00,62.4,55.8,29.96,North,7,2.0,7.0,79,0.00,,,0.00,meteohub,2013-09-09 13:50:00,
2013-09-09 09:55:00,63.0,56.3,29.96,SE,136,2.0,8.0,79,0.00,,,0.00,meteohub,2013-09-09 13:55:00,
2013-09-09 10:00:00,63.1,56.1,29.96,SSE,162,4.0,8.0,78,0.00,,,0.00,meteohub,2013-09-09 14:00:00,
2013-09-09 10:05:00,63.5,56.5,29.96,SSW,205,4.0,13.0,78,0.00,,,0.00,meteohub,2013-09-09 14:05:00,
2013-09-09 10:10:00,63.7,56.3,29.96,North,0,3.0,13.0,77,0.00,,,0.00,meteohub,2013-09-09 14:10:00,
2013-09-09 10:15:00,64.0,56.7,29.96,SW,221,1.0,13.0,77,0.00,,,0.00,meteohub,2013-09-09 14:15:00,
2013-09-09 10:20:00,64.6,56.8,29.97,SW,214,2.0,8.0,76,0.00,,,0.00,meteohub,2013-09-09 14:20:00,
2013-09-09 10:26:00,64.8,56.7,29.96,South,185,2.0,8.0,75,0.00,,,0.00,meteohub,2013-09-09 14:26:00,
2013-09-09 10:31:00,64.6,56.5,29.95,WSW,250,2.0,9.0,75,0.00,,,0.00,meteohub,2013-09-09 14:31:00,
2013-09-09 10:36:00,64.6,56.8,29.95,WSW,250,1.0,9.0,76,0.00,,,0.00,meteohub,2013-09-09 14:36:00,
2013-09-09 10:41:00,64.9,56.8,29.94,East,93,1.0,9.0,75,0.00,,,0.00,meteohub,2013-09-09 14:41:00,
2013-09-09 10:46:00,65.5,57.4,29.95,ESE,108,2.0,7.0,75,0.00,,,0.00,meteohub,2013-09-09 14:46:00,
2013-09-09 10:51:00,65.8,57.4,29.96,NE,48,2.0,5.0,74,0.00,,,0.00,meteohub,2013-09-09 14:51:00,
2013-09-09 10:56:00,65.8,57.0,29.95,SW,224,4.0,7.0,73,0.00,,,0.00,meteohub,2013-09-09 14:56:00,
2013-09-09 11:01:00,65.8,57.4,29.95,WSW,244,2.0,7.0,74,0.00,,,0.00,meteohub,2013-09-09 15:01:00,
2013-09-09 11:06:00,66.0,57.6,29.94,East,92,1.0,8.0,74,0.00,,,0.00,meteohub,2013-09-09 15:06:00,
2013-09-09 11:11:00,66.4,57.9,29.94,South,183,2.0,8.0,74,0.00,,,0.00,meteohub,2013-09-09 15:11:00,
2013-09-09 11:16:00,66.7,58.6,29.94,SSE,158,3.0,8.0,75,0.00,,,0.00,meteohub,2013-09-09 15:16:00,
2013-09-09 11:21:00,67.5,58.5,29.94,South,186,1.0,7.0,73,0.00,,,0.00,meteohub,2013-09-09 15:21:00,
2013-09-09 11:26:00,68.0,59.4,29.93,NNE,15,1.0,7.0,74,0.00,,,0.00,meteohub,2013-09-09 15:26:00,
2013-09-09 11:31:00,68.7,59.7,29.93,ESE,102,1.0,8.0,73,0.00,,,0.00,meteohub,2013-09-09 15:31:00,
2013-09-09 11:36:00,69.6,60.3,29.94,SSW,192,3.0,8.0,72,0.00,,,0.00,meteohub,2013-09-09 15:36:00,
2013-09-09 11:41:00,70.5,60.3,29.94,SW,233,3.0,8.0,70,0.00,,,0.00,meteohub,2013-09-09 15:41:00,
2013-09-09 11:46:00,70.7,60.1,29.94,East,89,4.0,8.0,69,0.00,,,0.00,meteohub,2013-09-09 15:46:00,
2013-09-09 11:51:00,70.5,60.3,29.94,ENE,58,2.0,6.0,70,0.00,,,0.00,meteohub,2013-09-09 15:51:00,
2013-09-09 11:56:00,70.2,59.9,29.94,SSE,164,1.0,6.0,70,0.00,,,0.00,meteohub,2013-09-09 15:56:00,
2013-09-09 12:01:00,70.0,60.1,29.94,SSE,148,1.0,8.0,71,0.00,,,0.00,meteohub,2013-09-09 16:01:00,
2013-09-09 12:06:00,69.6,60.3,29.94,SW,234,0.0,8.0,72,0.00,,,0.00,meteohub,2013-09-09 16:06:00,
2013-09-09 12:11:00,69.4,60.4,29.94,SW,231,0.0,8.0,73,0.00,,,0.00,meteohub,2013-09-09 16:11:00,
2013-09-09 12:16:00,69.4,60.4,29.94,SW,214,0.0,5.0,73,0.00,,,0.00,meteohub,2013-09-09 16:16:00,
2013-09-09 12:21:00,69.4,60.4,29.94,SSE,164,1.0,4.0,73,0.00,,,0.00,meteohub,2013-09-09 16:21:00,
2013-09-09 12:26:00,69.3,60.6,29.94,SSW,207,0.0,4.0,74,0.00,,,0.00,meteohub,2013-09-09 16:26:00,
2013-09-09 12:31:00,69.3,61.0,29.93,SW,223,1.0,4.0,75,0.00,,,0.00,meteohub,2013-09-09 16:31:00,
2013-09-09 12:36:00,69.4,61.2,29.93,WSW,244,1.0,5.0,75,0.00,,,0.00,meteohub,2013-09-09 16:36:00,
2013-09-09 12:41:00,70.0,61.7,29.93,ESE,109,1.0,7.0,75,0.00,,,0.00,meteohub,2013-09-09 16:41:00,
2013-09-09 12:46:00,70.5,62.6,29.93,NE,49,7.0,7.0,76,0.00,,,0.00,meteohub,2013-09-09 16:46:00,
2013-09-09 12:51:00,70.7,62.4,29.93,WSW,250,1.0,7.0,75,0.00,,,0.00,meteohub,2013-09-09 16:51:00,
2013-09-09 12:56:00,70.9,62.6,29.93,SSE,158,2.0,7.0,75,0.00,,,0.00,meteohub,2013-09-09 16:56:00,
2013-09-09 13:01:00,71.1,62.8,29.93,East,82,0.0,7.0,75,0.00,,,0.00,meteohub,2013-09-09 17:01:00,
2013-09-09 13:06:00,71.8,63.5,29.92,SSW,213,1.0,7.0,75,0.00,,,0.00,meteohub,2013-09-09 17:06:00,
2013-09-09 13:11:00,72.3,63.5,29.92,SSW,206,2.0,7.0,74,0.00,,,0.00,meteohub,2013-09-09 17:11:00,
2013-09-09 13:16:00,72.7,63.5,29.93,SE,126,1.0,7.0,73,0.00,,,0.00,meteohub,2013-09-09 17:16:00,
2013-09-09 13:21:00,72.7,63.5,29.93,WNW,293,0.0,7.0,73,0.00,,,0.00,meteohub,2013-09-09 17:21:00,
2013-09-09 13:26:00,72.7,63.5,29.93,SW,228,1.0,7.0,73,0.00,,,0.00,meteohub,2013-09-09 17:26:00,
2013-09-09 13:31:00,72.9,63.7,29.92,NE,48,0.0,5.0,73,0.00,,,0.00,meteohub,2013-09-09 17:31:00,
2013-09-09 13:36:00,73.2,64.0,29.92,WNW,295,1.0,4.0,73,0.00,,,0.00,meteohub,2013-09-09 17:36:00,
2013-09-09 13:41:00,73.2,64.0,29.92,East,90,1.0,6.0,73,0.00,,,0.00,meteohub,2013-09-09 17:41:00,
2013-09-09 13:46:00,73.4,64.2,29.92,SSW,199,2.0,6.0,73,0.00,,,0.00,meteohub,2013-09-09 17:46:00,
2013-09-09 13:51:00,73.6,64.4,29.91,NE,35,1.0,6.0,73,0.00,,,0.00,meteohub,2013-09-09 17:51:00,
2013-09-09 13:56:00,73.8,64.2,29.92,WNW,292,2.0,4.0,72,0.00,,,0.00,meteohub,2013-09-09 17:56:00,
2013-09-09 14:01:00,73.6,64.8,29.91,SW,214,1.0,6.0,74,0.00,,,0.00,meteohub,2013-09-09 18:01:00,
2013-09-09 14:06:00,73.2,64.0,29.91,WSW,237,3.0,6.0,73,0.00,,,0.00,meteohub,2013-09-09 18:06:00,
2013-09-09 14:11:00,73.0,64.6,29.91,WSW,238,1.0,6.0,75,0.00,,,0.00,meteohub,2013-09-09 18:11:00,
2013-09-09 14:16:00,73.0,64.2,29.90,South,188,0.0,5.0,74,0.00,,,0.00,meteohub,2013-09-09 18:16:00,
2013-09-09 14:21:00,73.2,64.4,29.90,SSE,161,1.0,4.0,74,0.00,,,0.00,meteohub,2013-09-09 18:21:00,
2013-09-09 14:26:00,72.9,64.4,29.90,SSW,206,1.0,3.0,75,0.00,,,0.00,meteohub,2013-09-09 18:26:00,
2013-09-09 14:31:00,72.9,64.4,29.89,ESE,120,0.0,3.0,75,0.00,,,0.00,meteohub,2013-09-09 18:31:00,
2013-09-09 14:36:00,73.2,64.8,29.88,SW,226,1.0,3.0,75,0.00,,,0.00,meteohub,2013-09-09 18:36:00,
2013-09-09 14:41:00,73.6,65.1,29.88,East,79,2.0,4.0,75,0.00,,,0.00,meteohub,2013-09-09 18:41:00,
2013-09-09 14:46:00,73.9,65.1,29.87,South,179,2.0,4.0,74,0.00,,,0.00,meteohub,2013-09-09 18:46:00,
2013-09-09 14:51:00,74.8,66.4,29.86,South,181,1.0,7.0,75,0.00,,,0.00,meteohub,2013-09-09 18:51:00,
2013-09-09 14:57:00,75.6,66.4,29.86,ENE,65,3.0,7.0,73,0.00,,,0.00,meteohub,2013-09-09 18:57:00,
2013-09-09 15:02:00,75.7,66.4,29.86,SSW,195,1.0,7.0,73,0.00,,,0.00,meteohub,2013-09-09 19:02:00,
2013-09-09 15:07:00,75.9,66.6,29.86,ESE,117,1.0,6.0,73,0.00,,,0.00,meteohub,2013-09-09 19:07:00,
2013-09-09 15:12:00,76.3,66.6,29.86,West,268,2.0,5.0,72,0.00,,,0.00,meteohub,2013-09-09 19:12:00,
2013-09-09 15:17:00,75.9,66.2,29.85,ENE,58,1.0,7.0,72,0.00,,,0.00,meteohub,2013-09-09 19:17:00,
2013-09-09 15:22:00,75.7,66.9,29.84,SE,138,3.0,7.0,74,0.00,,,0.00,meteohub,2013-09-09 19:22:00,
2013-09-09 15:27:00,76.3,67.5,29.84,SE,134,3.0,7.0,74,0.00,,,0.00,meteohub,2013-09-09 19:27:00,
2013-09-09 15:32:00,76.5,67.1,29.84,ESE,116,1.0,6.0,73,0.00,,,0.00,meteohub,2013-09-09 19:32:00,
2013-09-09 15:37:00,76.5,67.1,29.84,ESE,113,2.0,6.0,73,0.00,,,0.00,meteohub,2013-09-09 19:37:00,
2013-09-09 15:42:00,76.5,67.1,29.83,NE,40,0.0,6.0,73,0.00,,,0.00,meteohub,2013-09-09 19:42:00,
2013-09-09 15:47:00,76.3,66.9,29.82,East,95,4.0,6.0,73,0.00,,,0.00,meteohub,2013-09-09 19:47:00,
2013-09-09 15:52:00,76.1,67.3,29.82,SSE,148,1.0,9.0,74,0.00,,,0.00,meteohub,2013-09-09 19:52:00,
2013-09-09 15:57:00,76.8,67.8,29.81,SE,127,2.0,9.0,74,0.00,,,0.00,meteohub,2013-09-09 19:57:00,
2013-09-09 16:02:00,77.4,68.4,29.81,South,176,1.0,7.0,74,0.00,,,0.00,meteohub,2013-09-09 20:02:00,
2013-09-09 16:07:00,77.5,67.8,29.82,East,93,1.0,7.0,72,0.00,,,0.00,meteohub,2013-09-09 20:07:00,
2013-09-09 16:12:00,77.5,67.8,29.82,SSE,167,2.0,7.0,72,0.00,,,0.00,meteohub,2013-09-09 20:12:00,
2013-09-09 16:17:00,77.2,67.5,29.82,WSW,242,1.0,7.0,72,0.00,,,0.00,meteohub,2013-09-09 20:17:00,
2013-09-09 16:22:00,77.0,67.6,29.82,SW,219,1.0,8.0,73,0.00,,,0.00,meteohub,2013-09-09 20:22:00,
2013-09-09 16:27:00,76.8,67.5,29.82,WSW,242,0.0,8.0,73,0.00,,,0.00,meteohub,2013-09-09 20:27:00,
2013-09-09 16:32:00,77.0,67.6,29.83,SW,214,1.0,8.0,73,0.00,,,0.00,meteohub,2013-09-09 20:32:00,
2013-09-09 16:37:00,77.4,68.0,29.83,SW,226,0.0,4.0,73,0.00,,,0.00,meteohub,2013-09-09 20:37:00,
2013-09-09 16:42:00,77.7,68.0,29.82,North,3,1.0,4.0,72,0.00,,,0.00,meteohub,2013-09-09 20:42:00,
2013-09-09 16:47:00,77.9,67.8,29.82,NE,34,1.0,5.0,71,0.00,,,0.00,meteohub,2013-09-09 20:47:00,
2013-09-09 16:52:00,77.7,67.6,29.83,SSW,209,0.0,5.0,71,0.00,,,0.00,meteohub,2013-09-09 20:52:00,
2013-09-09 16:57:00,78.1,68.4,29.83,SW,224,0.0,3.0,72,0.00,,,0.00,meteohub,2013-09-09 20:57:00,
2013-09-09 17:02:00,78.3,68.0,29.84,WNW,290,1.0,3.0,71,0.00,,,0.00,meteohub,2013-09-09 21:02:00,
2013-09-09 17:07:00,78.3,68.0,29.84,West,268,4.0,4.0,71,0.00,,,0.00,meteohub,2013-09-09 21:07:00,
2013-09-09 17:12:00,78.3,68.5,29.83,SSW,202,1.0,6.0,72,0.00,,,0.00,meteohub,2013-09-09 21:12:00,
2013-09-09 17:17:00,78.6,68.4,29.81,SSW,212,1.0,6.0,71,0.00,,,0.00,meteohub,2013-09-09 21:17:00,
2013-09-09 17:22:00,78.6,68.4,29.80,WSW,250,1.0,6.0,71,0.00,,,0.00,meteohub,2013-09-09 21:22:00,
2013-09-09 17:27:00,78.1,67.8,29.80,ESE,117,1.0,6.0,71,0.00,,,0.00,meteohub,2013-09-09 21:27:00,
2013-09-09 17:32:00,77.5,67.8,29.79,SSW,195,3.0,10.0,72,0.00,,,0.00,meteohub,2013-09-09 21:32:00,
2013-09-09 17:37:00,77.4,68.0,29.78,WSW,242,3.0,10.0,73,0.00,,,0.00,meteohub,2013-09-09 21:37:00,
2013-09-09 17:42:00,76.8,67.8,29.78,SW,217,1.0,10.0,74,0.00,,,0.00,meteohub,2013-09-09 21:42:00,
2013-09-09 17:47:00,76.6,68.2,29.77,SSW,207,2.0,8.0,75,0.00,,,0.00,meteohub,2013-09-09 21:47:00,
2013-09-09 17:52:00,76.3,68.2,29.78,NE,46,3.0,8.0,76,0.00,,,0.00,meteohub,2013-09-09 21:52:00,
2013-09-09 17:57:00,75.9,67.8,29.78,ENE,58,1.0,9.0,76,0.00,,,0.00,meteohub,2013-09-09 21:57:00,
2013-09-09 18:02:00,75.6,67.8,29.78,ESE,109,0.0,10.0,77,0.00,,,0.00,meteohub,2013-09-09 22:02:00,
2013-09-09 18:07:00,75.4,68.0,29.78,SE,138,1.0,10.0,78,0.00,,,0.00,meteohub,2013-09-09 22:07:00,
2013-09-09 18:12:00,75.0,67.6,29.78,SE,127,5.0,10.0,78,0.00,,,0.00,meteohub,2013-09-09 22:12:00,
2013-09-09 18:17:00,74.8,68.2,29.78,East,90,1.0,7.0,80,0.00,,,0.00,meteohub,2013-09-09 22:17:00,
2013-09-09 18:22:00,74.7,68.4,29.78,ESE,117,0.0,7.0,81,0.00,,,0.00,meteohub,2013-09-09 22:22:00,
2013-09-09 18:27:00,74.5,68.2,29.78,ESE,108,1.0,7.0,81,0.00,,,0.00,meteohub,2013-09-09 22:27:00,
2013-09-09 18:32:00,74.1,68.2,29.78,SSE,157,0.0,4.0,82,0.00,,,0.00,meteohub,2013-09-09 22:32:00,
2013-09-09 18:37:00,73.9,68.4,29.78,SSW,203,0.0,4.0,83,0.00,,,0.00,meteohub,2013-09-09 22:37:00,
2013-09-09 18:42:00,73.8,68.4,29.78,South,174,0.0,4.0,83,0.00,,,0.00,meteohub,2013-09-09 22:42:00,
2013-09-09 18:47:00,73.6,68.4,29.78,SE,124,0.0,4.0,84,0.00,,,0.00,meteohub,2013-09-09 22:47:00,
2013-09-09 18:52:00,73.6,68.4,29.77,ENE,65,1.0,3.0,84,0.00,,,0.00,meteohub,2013-09-09 22:52:00,
2013-09-09 18:57:00,73.4,68.5,29.78,SSE,167,2.0,3.0,85,0.00,,,0.00,meteohub,2013-09-09 22:57:00,
2013-09-09 19:02:00,73.4,68.5,29.78,SE,124,1.0,4.0,85,0.00,,,0.00,meteohub,2013-09-09 23:02:00,
2013-09-09 19:07:00,73.6,68.7,29.78,South,187,3.0,5.0,85,0.00,,,0.00,meteohub,2013-09-09 23:07:00,
2013-09-09 19:12:00,73.6,68.7,29.77,SSW,210,1.0,5.0,85,0.00,,,0.00,meteohub,2013-09-09 23:12:00,
2013-09-09 19:17:00,73.4,68.5,29.77,East,92,1.0,5.0,85,0.00,,,0.00,meteohub,2013-09-09 23:17:00,
2013-09-09 19:22:00,73.4,68.5,29.77,East,95,0.0,4.0,85,0.00,,,0.00,meteohub,2013-09-09 23:22:00,
2013-09-09 19:27:00,73.4,68.5,29.77,ESE,122,0.0,4.0,85,0.00,,,0.00,meteohub,2013-09-09 23:27:00,
2013-09-09 19:32:00,73.2,68.4,29.77,ESE,120,1.0,4.0,85,0.00,,,0.00,meteohub,2013-09-09 23:32:00,
2013-09-09 19:37:00,73.2,68.7,29.76,ESE,111,0.0,3.0,86,0.00,,,0.00,meteohub,2013-09-09 23:37:00,
2013-09-09 19:42:00,73.0,68.5,29.76,East,86,1.0,3.0,86,0.00,,,0.00,meteohub,2013-09-09 23:42:00,
2013-09-09 19:47:00,72.9,68.4,29.77,SE,143,2.0,3.0,86,0.00,,,0.00,meteohub,2013-09-09 23:47:00,
2013-09-09 19:52:00,72.9,68.4,29.77,SE,145,2.0,2.0,86,0.00,,,0.00,meteohub,2013-09-09 23:52:00,
2013-09-09 19:57:00,72.9,68.4,29.77,SSE,150,2.0,4.0,86,0.00,,,0.00,meteohub,2013-09-09 23:57:00,
2013-09-09 20:02:00,72.9,68.4,29.76,SE,145,1.0,4.0,86,0.00,,,0.00,meteohub,2013-09-10 00:02:00,
2013-09-09 20:07:00,72.9,68.7,29.76,ENE,62,1.0,4.0,87,0.00,,,0.00,meteohub,2013-09-10 00:07:00,
2013-09-09 20:12:00,72.7,68.5,29.76,South,171,2.0,3.0,87,0.00,,,0.00,meteohub,2013-09-10 00:12:00,
2013-09-09 20:17:00,72.7,68.5,29.76,SE,134,0.0,3.0,87,0.00,,,0.00,meteohub,2013-09-10 00:17:00,
2013-09-09 20:22:00,72.7,68.5,29.76,NE,44,2.0,4.0,87,0.00,,,0.00,meteohub,2013-09-10 00:22:00,
2013-09-09 20:27:00,72.9,68.7,29.76,ESE,113,1.0,5.0,87,0.00,,,0.00,meteohub,2013-09-10 00:27:00,
2013-09-09 20:32:00,72.9,68.7,29.76,SSW,199,1.0,6.0,87,0.00,,,0.00,meteohub,2013-09-10 00:32:00,
2013-09-09 20:37:00,72.9,68.7,29.76,South,179,2.0,6.0,87,0.00,,,0.00,meteohub,2013-09-10 00:37:00,
2013-09-09 20:42:00,72.9,68.7,29.76,ENE,70,0.0,4.0,87,0.00,,,0.00,meteohub,2013-09-10 00:42:00,
2013-09-09 20:47:00,72.9,68.7,29.76,ESE,117,3.0,5.0,87,0.00,,,0.00,meteohub,2013-09-10 00:47:00,
2013-09-09 20:52:00,72.9,68.7,29.76,SSE,168,3.0,6.0,87,0.00,,,0.00,meteohub,2013-09-10 00:52:00,
2013-09-09 20:57:00,72.9,68.7,29.76,SSW,195,0.0,6.0,87,0.00,,,0.00,meteohub,2013-09-10 00:57:00,
2013-09-09 21:02:00,72.9,68.7,29.76,South,178,4.0,6.0,87,0.00,,,0.00,meteohub,2013-09-10 01:02:00,
2013-09-09 21:07:00,72.9,68.7,29.76,SE,138,2.0,6.0,87,0.00,,,0.00,meteohub,2013-09-10 01:07:00,
2013-09-09 21:12:00,73.0,68.9,29.76,South,172,1.0,6.0,87,0.00,,,0.00,meteohub,2013-09-10 01:12:00,
2013-09-09 21:17:00,73.0,68.9,29.75,SSE,164,2.0,6.0,87,0.00,,,0.00,meteohub,2013-09-10 01:17:00,
2013-09-09 21:22:00,73.2,69.1,29.75,SSW,209,1.0,7.0,87,0.00,,,0.00,meteohub,2013-09-10 01:22:00,
2013-09-09 21:27:00,73.2,69.1,29.75,SSE,165,0.0,7.0,87,0.00,,,0.00,meteohub,2013-09-10 01:27:00,
2013-09-09 21:32:00,73.0,68.9,29.75,SSE,167,1.0,7.0,87,0.00,,,0.00,meteohub,2013-09-10 01:32:00,
2013-09-09 21:37:00,72.9,68.7,29.75,East,91,1.0,6.0,87,0.00,,,0.00,meteohub,2013-09-10 01:37:00,
2013-09-09 21:42:00,72.7,68.9,29.75,ESE,117,4.0,4.0,88,0.00,,,0.00,meteohub,2013-09-10 01:42:00,
2013-09-09 21:47:00,72.7,68.9,29.74,ESE,112,1.0,6.0,88,0.00,,,0.00,meteohub,2013-09-10 01:47:00,
2013-09-09 21:52:00,72.7,68.9,29.74,South,182,2.0,6.0,88,0.00,,,0.00,meteohub,2013-09-10 01:52:00,
2013-09-09 21:57:00,72.9,69.1,29.74,NE,48,3.0,6.0,88,0.00,,,0.00,meteohub,2013-09-10 01:57:00,
2013-09-09 22:02:00,73.2,69.1,29.74,SW,230,1.0,7.0,87,0.00,,,0.00,meteohub,2013-09-10 02:02:00,
2013-09-09 22:07:00,73.2,69.1,29.74,ENE,58,4.0,7.0,87,0.00,,,0.00,meteohub,2013-09-10 02:07:00,
2013-09-09 22:12:00,73.2,69.1,29.74,SE,126,2.0,9.0,87,0.00,,,0.00,meteohub,2013-09-10 02:12:00,
2013-09-09 22:17:00,73.2,69.1,29.74,ESE,110,2.0,9.0,87,0.00,,,0.00,meteohub,2013-09-10 02:17:00,
2013-09-09 22:22:00,73.2,69.1,29.74,ESE,117,1.0,9.0,87,0.00,,,0.00,meteohub,2013-09-10 02:22:00,
2013-09-09 22:27:00,73.2,69.1,29.74,NNE,17,1.0,6.0,87,0.00,,,0.00,meteohub,2013-09-10 02:27:00,
2013-09-09 22:32:00,73.4,69.3,29.73,NE,39,6.0,6.0,87,0.00,,,0.00,meteohub,2013-09-10 02:32:00,
2013-09-09 22:37:00,73.4,69.3,29.73,East,79,2.0,6.0,87,0.00,,,0.00,meteohub,2013-09-10 02:37:00,
2013-09-09 22:42:00,73.4,69.3,29.73,East,89,4.0,6.0,87,0.00,,,0.00,meteohub,2013-09-10 02:42:00,
2013-09-09 22:47:00,73.4,69.3,29.73,ENE,58,1.0,6.0,87,0.00,,,0.00,meteohub,2013-09-10 02:47:00,
2013-09-09 22:52:00,73.6,69.8,29.72,ESE,108,4.0,5.0,88,0.00,,,0.00,meteohub,2013-09-10 02:52:00,
2013-09-09 22:57:00,73.6,69.8,29.72,ESE,110,3.0,5.0,88,0.00,,,0.00,meteohub,2013-09-10 02:57:00,
2013-09-09 23:02:00,73.8,70.0,29.71,ENE,62,1.0,6.0,88,0.00,,,0.00,meteohub,2013-09-10 03:02:00,
2013-09-09 23:07:00,73.9,69.8,29.71,SSE,162,5.0,6.0,87,0.00,,,0.00,meteohub,2013-09-10 03:07:00,
2013-09-09 23:12:00,74.5,70.3,29.70,NNE,27,1.0,6.0,87,0.00,,,0.00,meteohub,2013-09-10 03:12:00,
2013-09-09 23:17:00,74.8,70.3,29.70,West,266,3.0,7.0,86,0.00,,,0.00,meteohub,2013-09-10 03:17:00,
2013-09-09 23:22:00,75.4,70.5,29.70,ENE,62,2.0,10.0,85,0.00,,,0.00,meteohub,2013-09-10 03:22:00,
2013-09-09 23:27:00,75.7,70.9,29.70,ENE,67,2.0,10.0,85,0.00,,,0.00,meteohub,2013-09-10 03:27:00,
2013-09-09 23:32:00,76.1,70.9,29.70,SE,142,1.0,10.0,84,0.00,,,0.00,meteohub,2013-09-10 03:32:00,
2013-09-09 23:37:00,76.3,71.1,29.70,ENE,65,0.0,8.0,84,0.00,,,0.00,meteohub,2013-09-10 03:37:00,
2013-09-09 23:42:00,76.6,71.4,29.70,SE,130,3.0,8.0,84,0.00,,,0.00,meteohub,2013-09-10 03:42:00,
2013-09-09 23:47:00,76.8,71.2,29.70,SSW,205,4.0,10.0,83,0.00,,,0.00,meteohub,2013-09-10 03:47:00,
2013-09-09 23:52:00,76.8,71.2,29.70,East,96,3.0,10.0,83,0.00,,,0.00,meteohub,2013-09-10 03:52:00,
2013-09-09 23:57:00,77.0,71.4,29.70,ESE,113,0.0,11.0,83,0.00,,,0.00,meteohub,2013-09-10 03:57:00,